[[{"header":{"parameterUnit":"m.s-1","parameterCategory":1,"la1":30.2991,"la2":30.254,"lo1":-89.0895,"lo2":-89.0444,"dy":0.0017,"dx":0.0017,"nx":28,"ny":28,"refTime":"2024-10-16T09:00:00:Z","depth":0,"parameterNumber":2,"parameterNumberName":"U-component_of_WINDS"},"data":[0,0,0,0,0,0,0,0,0,0,0,0,0,0,0,0,0,0,0,0,0,0,0,0,0,0,0,0,0,0,0,0,0,0,0,0,0,0,0,0,0,0,0,0,0,0,0,0,0,0,0,0,0,0,0,0,0,0,-4.6442,-4.6443,0,-4.6521,-4.6522,-4.6523,-4.635,-4.6344,-4.6339,-4.6334,-4.6417,-4.6424,-4.6431,0,0,0,0,0,0,0,0,0,0,0,0,0,-4.6139,-4.6145,-4.6442,-4.6443,-4.6444,-4.6521,-4.6522,-4.6523,-4.6351,-4.6344,-4.6337,-4.6331,-4.6414,-4.6423,-4.6432,0,0,0,0,0,0,0,0,0,0,0,0,0,-4.625,-4.6147,-4.6441,-4.6367,-4.6361,-4.6521,-4.6522,-4.6524,-4.6352,-4.6344,-4.6336,-4.6328,-4.6411,-4.6422,-4.6433,-4.667,0,0,-4.6467,-4.6472,0,0,0,0,0,0,0,0,-4.6244,-4.6261,-4.6377,-4.6372,-4.6366,-4.6417,-4.6446,-4.6573,-4.6355,-4.6356,-4.6333,-4.6324,-4.6424,-4.6433,-4.6467,-4.6674,-4.6677,-4.6468,-4.6475,-4.648,-4.6483,0,0,0,0,0,0,0,-4.6236,-4.6257,-4.6473,-4.6379,-4.6372,-4.6329,-4.6336,-4.6469,-4.6436,-4.6355,-4.6343,-4.6354,-4.6419,-4.6456,-4.6467,-4.6678,-4.6468,-4.6478,-4.6485,-4.6489,-4.7081,-4.709,0,0,0,0,0,0,-4.6238,-4.6251,-4.6471,-4.6475,-4.6283,-4.6341,-4.6349,-4.6409,-4.6434,-4.643,-4.6361,-4.6346,-4.6442,-4.6455,-4.647,-4.6747,-4.648,-4.649,-4.6497,-4.7072,-4.7083,-4.7093,0,0,0,0,0,0,-4.6232,-4.6259,-4.6467,-4.636,-4.6383,-4.6355,-4.6425,-4.6415,-4.6452,-4.6439,-4.6432,-4.6406,-4.6435,-4.6454,-4.6621,-4.6748,-4.6495,-4.6505,-4.7062,-4.7076,-4.7088,-4.7306,0,0,0,0,0,0,-4.6224,-4.6258,-4.6348,-4.6363,-4.639,-4.6618,-4.6433,-4.6423,-4.6472,-4.6452,-4.6479,-4.6475,-4.643,-4.6605,-4.6632,-4.6759,-4.6514,-4.705,-4.7068,-4.7084,-4.7287,-4.7325,-4.7358,0,0,0,0,0,-4.6214,-4.6407,-4.6354,-4.6381,-4.6502,-4.6626,-4.6641,-4.6585,-4.6483,-4.6573,-4.6564,-4.6474,-4.6729,-4.6624,-4.6652,-4.6785,-4.7042,-4.7063,-4.7083,-4.7271,-4.7318,-4.7357,0,0,0,0,0,0,-4.6409,-4.6408,-4.6349,-4.6553,-4.6591,-4.6596,-4.6709,-4.6636,-4.6705,-4.6684,-4.6612,-4.6619,-4.68,-4.6808,-4.6691,-4.7013,-4.6868,-4.6895,-4.7002,-4.7046,-4.708,-4.7075,-4.6523,0,0,0,0,0,-4.6475,-4.6576,-4.657,-4.675,-4.6772,-4.6738,-4.679,-4.6743,-4.678,-4.6795,-4.6798,-4.6837,-4.6925,-4.6986,-4.7067,-4.7287,-4.7289,-4.7391,-4.7427,-4.7456,-4.748,-4.7596,-4.7641,-4.716,-4.716,-4.7159,0,0,-4.6615,-4.6626,-4.6695,-4.679,-4.6814,-4.6919,-4.6752,-4.6872,-4.6949,-4.6813,-4.6971,-4.6974,-4.7013,-4.7207,-4.7293,-4.722,-4.7613,-4.7482,-4.7505,-4.7514,-4.7622,-4.7667,-4.7708,-4.7174,-4.7171,-4.7169,0,0,-4.6922,-4.6941,-4.7093,-4.712,-4.7157,-4.7132,-4.7169,-4.7186,-4.7182,-4.7339,-4.7239,-4.7329,-4.7484,-4.7515,-4.7551,-4.7868,-4.7787,-4.7896,-4.8081,-4.8194,-4.8232,-4.8265,-4.8378,-4.8419,-4.792,-4.7921,-4.7921,0,-4.709,-4.7245,-4.718,-4.7306,-4.735,-4.723,-4.7383,-4.7412,-4.7475,-4.7509,-4.7425,-4.7615,-4.7633,-4.7832,-4.7909,-4.7942,-4.7981,-4.7893,-4.8232,-4.8264,-4.8295,-4.8401,-4.8444,-4.7934,-4.7932,-4.7931,-4.793,0,-4.745,-4.7559,-4.7677,-4.774,-4.7797,-4.7936,-4.7891,-4.7957,-4.7905,-4.7889,-4.8049,-4.8065,-4.8146,-4.819,-4.8141,-4.8382,-4.8335,-4.8244,-4.8096,-4.8355,-4.8453,-4.8494,-4.7952,-4.7947,-4.7944,-4.794,0,0,-4.7885,-4.7908,-4.7952,-4.7978,-4.801,-4.8093,-4.8225,-4.8304,-4.8362,-4.8408,-4.8517,-4.8649,-4.8564,-4.8605,-4.8557,-4.8657,-4.8906,-4.8552,-4.8552,-4.8618,-4.9172,-4.9242,-4.929,-4.8852,-4.8859,-4.8865,-4.9169,0,-4.8189,-4.8417,-4.8361,-4.8587,-4.8686,-4.8572,-4.8687,-4.8719,-4.8707,-4.8789,-4.8774,-4.8869,-4.8749,-4.8773,-4.8866,-4.8856,-4.9016,-4.8833,-4.8953,-4.8958,-4.8948,-4.9342,-4.9416,-4.9702,-4.9207,-4.9213,-4.9218,0,-4.8575,-4.8635,-4.8871,-4.8884,-4.8924,-4.9029,-4.9095,-4.9175,-4.9208,-4.9191,-4.9237,-4.9169,-4.9299,-4.9149,-4.9327,-4.9204,-4.9249,-4.9251,-4.9261,-4.9271,-4.9105,-4.9363,-4.9792,-4.9835,-4.9278,-4.9274,-4.9269,0,-4.8869,-4.9009,-4.9167,-4.9193,-4.9213,-4.9289,-4.9301,-4.9325,-4.9375,-4.9433,-4.9464,-4.9537,-4.9578,-4.9635,-4.9589,-4.9484,-4.9774,-4.9621,-4.9764,-4.9766,-4.9832,-4.9829,-5.0275,-4.986,-4.986,-4.9859,-4.9858,0,-4.9215,-4.9364,-4.9299,-4.9398,-4.956,-4.9493,-4.9656,-4.9654,-4.9676,-4.9771,-4.9676,-4.9768,-4.97,-4.9785,-4.9749,-4.9902,-4.9921,-4.9911,-4.99,-4.992,-4.9922,-4.995,-4.9929,-4.987,-4.9868,-4.9865,-4.9863,0,-4.9572,-4.9535,-4.97,-4.9704,-4.9708,-4.9828,-4.9831,-4.9921,-4.9901,-5.0022,-5.0046,-5.0015,-5.011,-5.0068,-5.0169,-5.0144,-5.034,-5.0303,-5.033,-5.032,-5.0466,-5.0453,-5.0947,-5.1008,-5.0554,-5.0558,-5.0562,0,-4.9796,-4.9908,-4.9923,-4.9979,-4.9997,-5.009,-5.0139,-5.0077,-5.0133,-5.0177,-5.0263,-5.0349,-5.0415,-5.0572,-5.0558,-5.0634,-5.0597,-5.0765,-5.0608,-5.0625,-5.06,-5.0594,-5.0605,-5.0797,-5.0802,-5.0807,-5.081,0,-5.0198,-5.0173,-5.0248,-5.0318,-5.038,-5.0432,-5.0476,-5.0527,-5.0466,-5.0534,-5.0629,-5.0681,-5.0782,-5.0869,-5.0935,-5.0946,-5.0869,-5.0859,-5.0896,-5.0919,-5.093,-5.0926,-5.0416,-5.0849,-5.0845,-5.0842,-5.084,-5.0838,-5.0495,-5.0588,-5.0613,-5.07,-5.0725,-5.0768,-5.0852,-5.0841,-5.092,-5.0997,-5.0955,-5.1066,-5.1093,-5.1174,-5.1196,-5.1282,-5.1216,-5.127,-5.1284,-5.1298,-5.1317,-5.0915,-5.1293,-5.1292,-5.1291,-5.129,-5.1289,0,-5.0891,-5.09,-5.0981,-5.1044,-5.1113,-5.1032,-5.1075,-5.1138,-5.1237,-5.1268,-5.1335,-5.1444,-5.1527,-5.1519,-5.1595,-5.1665,-5.1631,-5.1687,-5.1682,-5.1685,-5.1372,-5.1332,-5.1713,-5.1713,-5.1713,-5.1713,-5.1713,-5.1713,-5.1105,-5.1258,-5.1236,-5.14,-5.1408,-5.1516,-5.1548,-5.1586,-5.1611,-5.1736,-5.1805,-5.1798,-5.1813,-5.1889,-5.1962,-5.1957,-5.199,-5.2059,-5.2042,-5.175,-5.1708,-5.1668,-5.163,-5.2067,-5.2067,-5.2347,-5.235,-5.2352]},{"header":{"parameterUnit":"m.s-1","parameterCategory":1,"la1":30.2991,"la2":30.254,"lo1":-89.0895,"lo2":-89.0444,"dy":0.0017,"dx":0.0017,"nx":28,"ny":28,"refTime":"2024-10-16T09:00:00:Z","depth":0,"parameterNumber":3,"parameterNumberName":"V-component_of_WINDS"},"data":[0,0,0,0,0,0,0,0,0,0,0,0,0,0,0,0,0,0,0,0,0,0,0,0,0,0,0,0,0,0,0,0,0,0,0,0,0,0,0,0,0,0,0,0,0,0,0,0,0,0,0,0,0,0,0,0,0,0,-4.0477,-4.0478,0,-4.0515,-4.0516,-4.0516,-4.0485,-4.0484,-4.0482,-4.0481,-4.0518,-4.052,-4.0522,0,0,0,0,0,0,0,0,0,0,0,0,0,-4.0372,-4.0374,-4.0477,-4.0478,-4.0478,-4.0515,-4.0516,-4.0516,-4.0485,-4.0484,-4.0482,-4.0481,-4.0517,-4.052,-4.0522,0,0,0,0,0,0,0,0,0,0,0,0,0,-4.0415,-4.0375,-4.0477,-4.0467,-4.0467,-4.0515,-4.0516,-4.0517,-4.0486,-4.0484,-4.0482,-4.048,-4.0516,-4.052,-4.0523,-4.0583,0,0,-4.0533,-4.0534,0,0,0,0,0,0,0,0,-4.0413,-4.0419,-4.0468,-4.0468,-4.0467,-4.0494,-4.0492,-4.0539,-4.0486,-4.0478,-4.0481,-4.0479,-4.0511,-4.0515,-4.0526,-4.0584,-4.0586,-4.0533,-4.0535,-4.0537,-4.0538,0,0,0,0,0,0,0,-4.041,-4.0417,-4.0492,-4.0469,-4.0468,-4.0459,-4.0463,-4.0501,-4.0505,-4.0479,-4.0477,-4.0482,-4.0511,-4.0523,-4.0527,-4.0586,-4.0533,-4.0536,-4.0538,-4.0539,-4.0691,-4.0693,0,0,0,0,0,0,-4.0408,-4.0415,-4.0491,-4.0493,-4.0435,-4.0463,-4.0467,-4.0487,-4.0505,-4.0506,-4.0483,-4.048,-4.0518,-4.0523,-4.0528,-4.0596,-4.0537,-4.054,-4.0542,-4.0689,-4.0692,-4.0694,0,0,0,0,0,0,-4.0406,-4.0415,-4.0489,-4.0453,-4.0462,-4.0467,-4.0489,-4.0489,-4.0501,-4.0508,-4.0508,-4.0496,-4.0517,-4.0523,-4.0568,-4.0597,-4.0541,-4.0544,-4.0687,-4.069,-4.0693,-4.0735,0,0,0,0,0,0,-4.0403,-4.0415,-4.0439,-4.0454,-4.0464,-4.0531,-4.0491,-4.0491,-4.0507,-4.0504,-4.052,-4.0521,-4.0516,-4.0564,-4.0572,-4.0601,-4.0547,-4.0684,-4.0688,-4.0692,-4.0731,-4.0739,-4.0746,0,0,0,0,0,-4.04,-4.0449,-4.044,-4.045,-4.0495,-4.0532,-4.0538,-4.0532,-4.051,-4.0533,-4.0537,-4.052,-4.0593,-4.0569,-4.0577,-4.0608,-4.0682,-4.0687,-4.0691,-4.0727,-4.0737,-4.0746,0,0,0,0,0,0,-4.0437,-4.0451,-4.0441,-4.0498,-4.0514,-4.0527,-4.0556,-4.0544,-4.0566,-4.0562,-4.0553,-4.0557,-4.0603,-4.061,-4.0583,-4.0664,-4.0634,-4.064,-4.0658,-4.0667,-4.0675,-4.0671,-4.0549,0,0,0,0,0,-4.0452,-4.0483,-4.0493,-4.0542,-4.0551,-4.0552,-4.0569,-4.0563,-4.0579,-4.0585,-4.0593,-4.0608,-4.0634,-4.0652,-4.0676,-4.0732,-4.0733,-4.0757,-4.0764,-4.0771,-4.0776,-4.0802,-4.0812,-4.0709,-4.0709,-4.0709,0,0,-4.0483,-4.0495,-4.0515,-4.055,-4.0562,-4.0592,-4.0558,-4.0592,-4.0614,-4.059,-4.0632,-4.0639,-4.0655,-4.0705,-4.0727,-4.0712,-4.0804,-4.0776,-4.0781,-4.0783,-4.0808,-4.0817,-4.0826,-4.0712,-4.0711,-4.0711,0,0,-4.0554,-4.0568,-4.0608,-4.062,-4.0638,-4.0639,-4.0648,-4.0663,-4.0665,-4.0708,-4.069,-4.0715,-4.0761,-4.0772,-4.0784,-4.0857,-4.0841,-4.0865,-4.0904,-4.093,-4.0938,-4.0945,-4.0968,-4.0976,-4.0871,-4.0871,-4.0871,0,-4.059,-4.0636,-4.063,-4.0664,-4.0679,-4.0659,-4.0698,-4.071,-4.0736,-4.0745,-4.0728,-4.0783,-4.0794,-4.0844,-4.0861,-4.0873,-4.0881,-4.0863,-4.0937,-4.0944,-4.0951,-4.0972,-4.0981,-4.0874,-4.0873,-4.0873,-4.0873,0,-4.0677,-4.0709,-4.0739,-4.0763,-4.0781,-4.0818,-4.0816,-4.0835,-4.0827,-4.0828,-4.087,-4.0881,-4.0906,-4.0918,-4.0912,-4.0967,-4.0956,-4.0939,-4.0907,-4.0963,-4.0983,-4.0992,-4.0877,-4.0876,-4.0876,-4.0875,0,0,-4.0773,-4.0792,-4.0803,-4.0812,-4.083,-4.0853,-4.0888,-4.0913,-4.0928,-4.0946,-4.0972,-4.1011,-4.0993,-4.1007,-4.1001,-4.1024,-4.1077,-4.1003,-4.1003,-4.1014,-4.1135,-4.1146,-4.1156,-4.1067,-4.1069,-4.107,-4.1132,0,-4.0842,-4.0903,-4.0898,-4.0954,-4.0981,-4.0962,-4.0992,-4.1005,-4.1007,-4.1029,-4.1031,-4.1057,-4.1034,-4.1041,-4.1064,-4.1066,-4.1101,-4.1062,-4.109,-4.1091,-4.1084,-4.1167,-4.118,-4.1238,-4.1141,-4.1142,-4.1143,0,-4.0932,-4.0951,-4.1011,-4.1021,-4.1032,-4.1059,-4.1079,-4.1102,-4.1115,-4.1115,-4.1129,-4.1118,-4.1151,-4.112,-4.1163,-4.1137,-4.1148,-4.1151,-4.1153,-4.1153,-4.1119,-4.1167,-4.1257,-4.1264,-4.1156,-4.1155,-4.1154,0,-4.0991,-4.1033,-4.1073,-4.1082,-4.1096,-4.1115,-4.1122,-4.1133,-4.1147,-4.1165,-4.1173,-4.1195,-4.1206,-4.1222,-4.1216,-4.1195,-4.126,-4.1229,-4.1258,-4.1258,-4.1271,-4.1269,-4.1361,-4.1283,-4.1282,-4.1282,-4.1282,0,-4.1068,-4.1104,-4.1099,-4.1124,-4.1163,-4.1156,-4.1194,-4.1198,-4.1208,-4.1231,-4.1217,-4.1239,-4.1232,-4.1253,-4.1249,-4.1283,-4.1289,-4.1288,-4.1286,-4.1288,-4.1287,-4.1293,-4.1288,-4.1285,-4.1284,-4.1284,-4.1283,0,-4.1141,-4.114,-4.1181,-4.1191,-4.1194,-4.1222,-4.1229,-4.1251,-4.1251,-4.1281,-4.1287,-4.1287,-4.1311,-4.1307,-4.1334,-4.1331,-4.1373,-4.1368,-4.1369,-4.1366,-4.1394,-4.139,-4.149,-4.1501,-4.1419,-4.1419,-4.142,0,-4.1188,-4.1215,-4.1227,-4.1241,-4.1249,-4.1273,-4.1287,-4.128,-4.1295,-4.1311,-4.133,-4.1353,-4.137,-4.1409,-4.141,-4.143,-4.1423,-4.1457,-4.1426,-4.1426,-4.142,-4.1417,-4.1418,-4.1462,-4.1463,-4.1464,-4.1464,0,-4.1271,-4.1269,-4.129,-4.131,-4.1326,-4.1342,-4.1356,-4.1368,-4.1362,-4.1379,-4.1403,-4.1417,-4.1443,-4.1465,-4.1483,-4.1488,-4.1474,-4.1474,-4.1481,-4.1482,-4.148,-4.1478,-4.1382,-4.1471,-4.1471,-4.147,-4.147,-4.1469,-4.1331,-4.1353,-4.1363,-4.1386,-4.1396,-4.1408,-4.1428,-4.143,-4.1451,-4.1471,-4.1466,-4.1492,-4.1503,-4.1525,-4.1533,-4.1552,-4.1539,-4.1551,-4.1553,-4.1555,-4.1557,-4.1479,-4.1556,-4.1555,-4.1555,-4.1555,-4.1555,0,-4.1411,-4.1416,-4.1437,-4.1456,-4.1473,-4.146,-4.1474,-4.1489,-4.1512,-4.1523,-4.154,-4.1566,-4.1586,-4.1589,-4.1608,-4.1622,-4.1616,-4.1627,-4.1625,-4.1625,-4.1568,-4.1559,-4.1632,-4.1632,-4.1632,-4.1632,-4.1631,-4.1631,-4.1454,-4.1489,-4.1487,-4.1526,-4.1531,-4.1557,-4.1565,-4.1576,-4.1584,-4.1614,-4.163,-4.1632,-4.1639,-4.1658,-4.1675,-4.1675,-4.1681,-4.1694,-4.1692,-4.1638,-4.163,-4.1623,-4.1613,-4.1696,-4.1696,-4.1747,-4.1747,-4.1748]}]]